Find Starlink 5295

NORAD ID: 55306 Int'l Des: 2023-010 Owner: SPXS Country: US Constellation: starlink operational
LEOCIRCULAR

实时位置

正在加载3D地球...

关于 Starlink 5295

正在加载描述...

即将过境

Passes for default location (London). Set your location on the main map for personalized predictions.

高度历史

Loading altitude history...

两行轨道根数

1 55306U 23010AP 26104.90494424 .00000327 00000-0 35199-4 0 9997
2 55306 69.9984 273.2753 0002989 277.2190 82.8629 14.98330901179191
Epoch: Apr 14, 2026 • Age: 10 hours

当前状态

高度 578.1 km
速度 7.57 km/s
星下点 -19.73°S, 47.23°W
发射日期 Jan 19, 2023
运行时间 3.2 years
类型 internet

技术详情

分类 Payload
质量 305.00 kg
干质量 290.00 kg
总质量 305.00 kg
长度 0.20 m
直径 2.80 m
跨度 9.00 m
形状 Box + pan
制造商 SPXS
平台类型 Starlink
阶段状态 In Orbit
所有者/国家 SPXS/US

Most Searched